#timestamp,LO_Frequency,Hit,StdDev 
1610366415.6,286046998.1,N
1610366435.4,286046998.2,N
1610366455.2,286047000.8,N
1610366475.1,286046999.1,N
1610366476.0,286046999.1,N
1610366495.8,286046997.1,N
1610366515.6,286046996.5,N
1610366535.5,286046998.1,N
1610366555.3,286046999.1,N
1610366575.1,286046997.0,N
1610366595.9,286046996.5,N
1610366615.7,286047001.2,N
1610366635.6,286046998.4,N
1610366655.4,286047001.1,N
1610366675.2,286046997.3,N
1610366695.1,286046995.2,N
1610366696.0,286046995.2,N
1610366715.8,286046997.9,N
1610366735.2,286046995.1,N
1610366755.0,286046997.9,N
1610366755.9,286046997.9,N
1610366775.8,286046993.9,N
1610366795.6,286046993.3,N
1610366815.4,286046995.4,N
1610366835.3,286046999.0,N
1610366855.1,286046996.6,N
1610366875.8,286046996.6,N
1610366895.7,286046999.5,N
1610366915.5,286046999.2,N
1610366935.4,286046997.0,N
1610366955.2,286047000.7,N
1610366975.0,286046998.3,N
1610366975.9,286046998.3,N
1610366995.8,286047008.2,Y
1610367015.6,286047017.9,P
1610367035.5,286047021.5,N
1610367055.3,286047020.8,N
1610367075.1,286047017.9,N
1610367095.9,286047014.9,N
1610367115.7,286047011.2,N
1610367135.5,286047007.8,N
1610367155.4,286047009.0,N
1610367175.2,286047006.1,N
1610367195.1,286047007.1,N
1610367196.0,286047007.1,N
1610367215.8,286047007.0,N
1610367235.6,286047003.5,N
1610367255.5,286047004.4,N
1610367275.3,286047001.6,N
1610367295.1,286047002.6,N
1610367315.9,286047000.1,N
1610367335.7,286047002.2,N
1610367355.6,286047005.9,N
1610367375.4,286047006.0,N
1610367395.2,286047003.1,N
1610367415.1,286047003.7,N
1610367416.0,286047003.7,N
1610367435.8,286047005.5,N
1610367455.7,286047004.1,N
1610367475.5,286047004.4,N
1610367495.3,286047004.2,N
1610367515.2,286047001.4,N
1610367535.9,286047002.3,N
1610367555.7,286047002.8,N
1610367575.6,286047002.4,N
1610367595.4,286047002.0,N
1610367615.3,286047004.0,N
1610367635.1,286047004.1,N
1610367636.0,286047004.1,N
1610367655.8,286047003.1,N
1610367675.7,286047003.6,N
1610367695.5,286047004.0,N
1610367715.3,286047003.5,N
1610367735.2,286047005.8,Y
1610367755.0,286047000.5,P
1610367755.9,286047000.5,N
1610367775.8,286047001.1,N
1610367795.6,286046997.2,N
1610367815.4,286046997.0,N
1610367835.3,286046997.2,N
1610367855.1,286046997.2,N
1610367875.8,286046997.3,N
1610367895.7,286046996.6,N
1610367915.5,286046997.4,N
1610367935.4,286046997.1,N
1610367955.2,286046999.4,N
1610367975.0,286046998.9,N
1610367975.9,286046998.9,N
1610367995.8,286046996.5,N
1610368015.6,286046996.6,N
1610368035.4,286046999.1,N
1610368055.3,286046997.3,N
1610368075.1,286046998.8,N
1610368095.9,286046997.8,N
1610368115.7,286046999.2,N
1610368135.5,286046996.9,N
1610368155.4,286046996.5,N
1610368175.2,286046999.1,N
1610368195.0,286046998.4,N
1610368195.9,286046998.4,N
1610368215.8,286046997.2,N
1610368235.6,286046999.5,N
1610368255.4,286046999.1,N
1610368275.3,286046998.6,N
1610368295.1,286046998.8,N
1610368315.9,286046997.7,N
1610368335.7,286046997.9,N
1610368355.5,286046997.0,Y
1610368375.4,286046998.4,P
1610368395.2,286047001.0,P
1610368415.1,286047000.7,N
1610368416.0,286047000.7,N
1610368435.8,286047002.6,N
1610368455.6,286047001.1,N
1610368475.1,286047000.7,N
1610368495.8,286046998.5,N
1610368515.7,286046998.2,N
1610368535.5,286046999.2,N
1610368555.4,286046997.0,N
1610368575.2,286046999.0,N
1610368595.0,286046998.5,N
1610368595.9,286046998.5,N
1610368615.8,286047002.8,N
1610368635.6,286046998.9,N
1610368655.4,286047001.2,N
1610368675.3,286047000.8,N
1610368695.1,286047000.3,N
1610368715.9,286047000.0,N
1610368735.7,286047002.7,N
1610368785.6,286046998.5,E
1610368795.5,286047000.0,N
1610368815.3,286046999.9,P
1610368835.1,286046998.8,P
1610368855.9,286047000.0,N
1610368875.7,286047000.1,N
1610368895.6,286047002.3,Y
1610368915.4,286047004.3,P
1610368935.2,286047003.7,N
1610368955.1,286047002.2,N
1610368956.0,286047002.2,N
1610368975.8,286047002.8,N
1610368995.6,286047002.2,N
1610369015.5,286047001.9,N
1610369035.3,286047000.3,N
1610369055.2,286047000.7,N
1610369075.9,286047001.1,N
1610369095.7,286047000.0,N
1610369115.6,286046999.8,N
1610369135.4,286047000.1,N
1610369155.3,286047002.4,N
1610369175.1,286047004.1,N
1610369176.0,286047004.1,N
1610369195.8,286047002.4,N
1610369215.7,286046999.8,N
1610369235.5,286046998.7,N
1610369255.3,286046999.2,N
1610369275.2,286046997.5,N
1610369295.0,286046997.8,N
1610369295.9,286046997.8,N
1610369315.8,286046999.3,N
1610369335.6,286046998.7,N
1610369355.4,286046996.9,N
1610369375.3,286046997.0,N
1610369395.1,286046998.2,N
1610369415.9,286046999.4,N
1610369435.7,286046996.9,N
1610369455.5,286046997.0,N
1610369475.4,286046998.7,N
1610369495.2,286046998.7,N
1610369515.1,286046998.1,N
1610369516.0,286046998.1,N
1610369535.8,286046997.0,N
1610369555.6,286046995.1,N
1610369575.5,286046997.7,N
1610369595.3,286046995.2,N
1610369615.1,286046997.7,N
1610369635.9,286046995.5,N
1610369655.7,286046993.7,N
1610369675.6,286046996.3,N
1610369695.4,286046995.2,N
1610369715.3,286046997.8,N
1610369735.1,286046996.9,N
1610369755.8,286046997.0,N
1610369775.7,286046999.5,N
1610369795.5,286046999.2,N
1610369815.4,286046996.5,N
1610369835.2,286046998.0,N
1610369855.0,286046997.7,N
1610369855.9,286046997.7,N
1610369875.8,286046995.0,Y
1610369895.6,286046998.3,P
1610369915.5,286046998.5,P
1610369935.3,286046998.5,P
1610369955.1,286046997.0,Y
1610369975.9,286047001.0,P
1610369995.9,286047000.9,N
